,,PA_Meas_PMT16A,,PR_Meas_QMR101_102,,RH_Meas_QMH101,,SR_Meas_QMS101,,TA_Meas_QMH101,,GenWind,,GenWind,
time,status,PA,status,PR,status,RH,status,SR,status,TA,status,DirAvg,status,SpdAvg,
2011-07-18, 00:00:04,VALID,917.9,VALID,0,VALID,95.9102,VALID,0.107441,VALID,20.3253,VALID,7,VALID,0.539844,
2011-07-18, 00:01:04,VALID,917.964,VALID,0,VALID,95.9483,VALID,0,VALID,20.3464,VALID,7,VALID,0.520703,
2011-07-18, 00:02:04,VALID,917.92,VALID,0,VALID,95.9712,VALID,0,VALID,20.3253,VALID,7,VALID,0.462891,
2011-07-18, 00:03:04,VALID,917.91,VALID,0,VALID,95.9712,VALID,0,VALID,20.3058,VALID,7,VALID,0.305078,
2011-07-18, 00:04:04,VALID,917.907,VALID,0,VALID,96.0093,VALID,0,VALID,20.2458,VALID,7,VALID,0.38125,
2011-07-18, 00:05:04,VALID,917.891,VALID,0,VALID,96.0474,VALID,0,VALID,20.2863,VALID,7,VALID,0.279297,
2011-07-18, 00:06:04,VALID,917.882,VALID,0,VALID,96.0627,VALID,0,VALID,20.2473,VALID,8,VALID,0.0796875,
2011-07-18, 00:07:04,VALID,917.865,VALID,0,VALID,96.1084,VALID,0,VALID,20.2278,VALID,7,VALID,0.455078,
2011-07-18, 00:08:04,VALID,917.873,VALID,0,VALID,96.1465,VALID,0,VALID,20.2668,VALID,8,VALID,0.546484,
2011-07-18, 00:09:04,VALID,917.902,VALID,0,VALID,96.2075,VALID,0,VALID,20.2473,VALID,7,VALID,0.571875,
2011-07-18, 00:10:04,VALID,917.895,VALID,0,VALID,96.2228,VALID,0,VALID,20.2473,VALID,8,VALID,0.505078,
2011-07-18, 00:11:04,VALID,917.914,VALID,0,VALID,96.2761,VALID,0,VALID,20.2863,VALID,7,VALID,0.577344,
2011-07-18, 00:12:04,VALID,917.908,VALID,0,VALID,96.3295,VALID,0,VALID,20.2668,VALID,8,VALID,0.450391,
2011-07-18, 00:13:04,VALID,917.885,VALID,0,VALID,96.3905,VALID,0,VALID,20.3043,VALID,8,VALID,0.424609,
2011-07-18, 00:14:04,VALID,917.891,VALID,0,VALID,96.421,VALID,0,VALID,20.2863,VALID,8,VALID,0.591406,
2011-07-18, 00:15:04,VALID,917.891,VALID,0,VALID,96.4819,VALID,0,VALID,20.3448,VALID,8,VALID,0.317578,
2011-07-18, 00:16:04,VALID,917.888,VALID,0,VALID,96.4667,VALID,0,VALID,20.3253,VALID,8,VALID,0.273438,
2011-07-18, 00:17:04,VALID,917.882,VALID,0,VALID,96.4972,VALID,0,VALID,20.3253,VALID,8,VALID,0.102734,
2011-07-18, 00:18:04,VALID,917.867,VALID,0,VALID,96.4819,VALID,0,VALID,20.3058,VALID,8,VALID,0.265234,
2011-07-18, 00:19:04,VALID,917.838,VALID,0,VALID,96.4743,VALID,0,VALID,20.3058,VALID,8,VALID,0.580078,
2011-07-18, 00:20:04,VALID,917.853,VALID,0,VALID,96.5277,VALID,0,VALID,20.3058,VALID,45,VALID,0.499219,
2011-07-18, 00:21:04,VALID,917.863,VALID,0,VALID,96.5506,VALID,0.107441,VALID,20.3253,VALID,45,VALID,0.560156,
2011-07-18, 00:22:04,VALID,917.843,VALID,0,VALID,96.6115,VALID,0,VALID,20.3253,VALID,46,VALID,0.685156,
2011-07-18, 00:23:04,VALID,917.866,VALID,0,VALID,96.6268,VALID,0,VALID,20.3643,VALID,45,VALID,0.354688,
2011-07-18, 00:24:04,VALID,917.832,VALID,0,VALID,96.6497,VALID,0,VALID,20.3643,VALID,45,VALID,0.421094,
2011-07-18, 00:25:04,VALID,917.815,VALID,0,VALID,96.6802,VALID,0,VALID,20.4033,VALID,46,VALID,0.664453,
2011-07-18, 00:26:04,VALID,917.794,VALID,0,VALID,96.6725,VALID,0,VALID,20.4049,VALID,45,VALID,0.41875,
2011-07-18, 00:27:04,VALID,917.773,VALID,0,VALID,96.6802,VALID,0,VALID,20.4033,VALID,45,VALID,0.542969,
2011-07-18, 00:28:04,VALID,917.772,VALID,0,VALID,96.6725,VALID,0,VALID,20.3838,VALID,46,VALID,0.590625,
2011-07-18, 00:29:04,VALID,917.756,VALID,0,VALID,96.703,VALID,0,VALID,20.3854,VALID,46,VALID,0.38125,
2011-07-18, 00:30:04,VALID,917.736,VALID,0,VALID,96.7107,VALID,0,VALID,20.3838,VALID,45,VALID,0.323438,
2011-07-18, 00:31:04,VALID,917.721,VALID,0,VALID,96.6878,VALID,0,VALID,20.3643,VALID,45,VALID,0.420312,
2011-07-18, 00:32:04,VALID,917.713,VALID,0,VALID,96.7259,VALID,0,VALID,20.3643,VALID,46,VALID,0.3,
2011-07-18, 00:33:04,VALID,917.704,VALID,0,VALID,96.7564,VALID,0,VALID,20.3838,VALID,46,VALID,0.313281,
2011-07-18, 00:34:04,VALID,917.688,VALID,0,VALID,96.7411,VALID,0,VALID,20.3823,VALID,45,VALID,0.289453,
2011-07-18, 00:35:04,VALID,917.681,VALID,0,VALID,96.7869,VALID,0,VALID,20.3838,VALID,46,VALID,0.940234,
2011-07-18, 00:36:04,VALID,917.662,VALID,0,VALID,96.764,VALID,0,VALID,20.3838,VALID,45,VALID,0.396094,
2011-07-18, 00:37:04,VALID,917.665,VALID,0,VALID,96.8021,VALID,0,VALID,20.3838,VALID,45,VALID,0.417578,
2011-07-18, 00:38:04,VALID,917.632,VALID,0,VALID,96.8174,VALID,0,VALID,20.4033,VALID,46,VALID,0.539844,
2011-07-18, 00:39:04,VALID,917.623,VALID,0,VALID,96.8098,VALID,0,VALID,20.4033,VALID,45,VALID,0.475,
2011-07-18, 00:40:04,VALID,917.59,VALID,0,VALID,96.8479,VALID,0,VALID,20.4228,VALID,46,VALID,0.625,
2011-07-18, 00:41:04,VALID,917.588,VALID,0,VALID,96.8555,VALID,0,VALID,20.4423,VALID,46,VALID,0.510156,
2011-07-18, 00:42:04,VALID,917.587,VALID,0,VALID,96.8479,VALID,0,VALID,20.4423,VALID,46,VALID,0.605078,
2011-07-18, 00:43:04,VALID,917.556,VALID,0,VALID,96.8555,VALID,0,VALID,20.4829,VALID,45,VALID,0.115625,
2011-07-18, 00:44:04,VALID,917.512,VALID,0,VALID,96.8555,VALID,0,VALID,20.4829,VALID,46,VALID,0.419531,
2011-07-18, 00:45:04,VALID,917.5,VALID,0,VALID,96.8479,VALID,0,VALID,20.4634,VALID,45,VALID,0.622656,
2011-07-18, 00:46:04,VALID,917.471,VALID,0,VALID,96.8326,VALID,0,VALID,20.4439,VALID,46,VALID,0.864453,
2011-07-18, 00:47:04,VALID,917.456,VALID,0,VALID,96.8403,VALID,0,VALID,20.4228,VALID,46,VALID,0.028125,
2011-07-18, 00:48:04,VALID,917.401,VALID,0,VALID,96.8098,VALID,0,VALID,20.4259,VALID,46,VALID,0.651953,
2011-07-18, 00:49:04,VALID,917.443,VALID,0,VALID,96.8021,VALID,0,VALID,20.3448,VALID,46,VALID,0.944141,
2011-07-18, 00:50:04,VALID,917.417,VALID,0,VALID,96.7945,VALID,0,VALID,20.3464,VALID,46,VALID,0.705469,
2011-07-18, 00:51:04,VALID,917.393,VALID,0,VALID,96.7716,VALID,0,VALID,20.3074,VALID,46,VALID,1.22812,
2011-07-18, 00:52:04,VALID,917.388,VALID,0,VALID,96.7793,VALID,0,VALID,20.2489,VALID,46,VALID,0.744141,
2011-07-18, 00:53:04,VALID,917.382,VALID,0,VALID,96.7869,VALID,0,VALID,20.2278,VALID,46,VALID,0.244141,
2011-07-18, 00:54:04,VALID,917.382,VALID,0,VALID,96.7793,VALID,0,VALID,20.2098,VALID,45,VALID,0.51875,
2011-07-18, 00:55:04,VALID,917.346,VALID,0,VALID,96.7716,VALID,0,VALID,20.1498,VALID,46,VALID,0.492188,
2011-07-18, 00:56:04,VALID,917.356,VALID,0,VALID,96.8021,VALID,0,VALID,20.1303,VALID,46,VALID,0.481641,
2011-07-18, 00:57:04,VALID,917.333,VALID,0,VALID,96.7793,VALID,0,VALID,20.1108,VALID,46,VALID,0.441797,
2011-07-18, 00:58:04,VALID,917.308,VALID,0,VALID,96.8098,VALID,0,VALID,20.1318,VALID,46,VALID,0.851953,
2011-07-18, 00:59:04,VALID,917.294,VALID,0,VALID,96.8174,VALID,0,VALID,20.0913,VALID,46,VALID,0.380469,
2011-07-18, 01:00:04,VALID,917.269,VALID,0,VALID,96.825,VALID,0,VALID,20.0718,VALID,45,VALID,0.832812,
2011-07-18, 01:01:04,VALID,917.246,VALID,0,VALID,96.886,VALID,0,VALID,20.0718,VALID,46,VALID,0.708594,
2011-07-18, 01:02:04,VALID,917.242,VALID,0,VALID,96.8479,VALID,0,VALID,20.1108,VALID,45,VALID,0.897656,
2011-07-18, 01:03:04,VALID,917.182,VALID,0,VALID,96.8479,VALID,0,VALID,20.0733,VALID,45,VALID,0.603906,
2011-07-18, 01:04:04,VALID,917.215,VALID,0,VALID,96.8479,VALID,0,VALID,20.0538,VALID,46,VALID,0.440625,
2011-07-18, 01:05:04,VALID,917.186,VALID,0,VALID,96.8784,VALID,0,VALID,20.0328,VALID,45,VALID,0.725781,
2011-07-18, 01:06:04,VALID,917.194,VALID,0,VALID,96.9089,VALID,0,VALID,20.0523,VALID,90,VALID,1.06406,
2011-07-18, 01:07:04,VALID,917.198,VALID,0,VALID,96.9165,VALID,0,VALID,20.0928,VALID,98,VALID,0.580078,
2011-07-18, 01:08:04,VALID,917.218,VALID,0,VALID,96.9165,VALID,0,VALID,20.0913,VALID,98,VALID,0.738281,
2011-07-18, 01:09:04,VALID,917.219,VALID,0,VALID,96.9089,VALID,0,VALID,20.0718,VALID,98,VALID,0.614844,
2011-07-18, 01:10:04,VALID,917.218,VALID,0,VALID,96.9012,VALID,0,VALID,20.0718,VALID,98,VALID,0.700391,
2011-07-18, 01:11:04,VALID,917.229,VALID,0,VALID,96.9317,VALID,0,VALID,20.1123,VALID,97,VALID,0.782031,
2011-07-18, 01:12:04,VALID,917.211,VALID,0,VALID,96.886,VALID,0,VALID,20.0928,VALID,98,VALID,0.535156,
2011-07-18, 01:13:04,VALID,917.209,VALID,0,VALID,96.9089,VALID,0,VALID,20.0718,VALID,98,VALID,0.527344,
2011-07-18, 01:14:04,VALID,917.229,VALID,0,VALID,96.9546,VALID,0,VALID,20.0733,VALID,98,VALID,0.839453,
2011-07-18, 01:15:04,VALID,917.198,VALID,0,VALID,96.9317,VALID,0,VALID,20.0928,VALID,98,VALID,0.789063,
2011-07-18, 01:16:04,VALID,917.223,VALID,0,VALID,96.9317,VALID,0,VALID,20.0928,VALID,98,VALID,0.751562,
2011-07-18, 01:17:04,VALID,917.238,VALID,0,VALID,96.9698,VALID,0,VALID,20.0913,VALID,98,VALID,0.791016,
2011-07-18, 01:18:04,VALID,917.209,VALID,0,VALID,96.9394,VALID,0,VALID,20.0718,VALID,98,VALID,0.54375,
2011-07-18, 01:19:04,VALID,917.169,VALID,0,VALID,96.9927,VALID,0,VALID,20.1318,VALID,98,VALID,0.745703,
2011-07-18, 01:20:04,VALID,917.183,VALID,0,VALID,96.9775,VALID,0,VALID,20.1108,VALID,98,VALID,0.816406,
2011-07-18, 01:21:04,VALID,917.179,VALID,0,VALID,97.008,VALID,0,VALID,20.1513,VALID,98,VALID,0.729688,
2011-07-18, 01:22:04,VALID,917.158,VALID,0,VALID,96.9622,VALID,0,VALID,20.1108,VALID,98,VALID,0.59375,
2011-07-18, 01:23:04,VALID,917.17,VALID,0,VALID,96.9698,VALID,0,VALID,20.1123,VALID,98,VALID,0.563672,
2011-07-18, 01:24:04,VALID,917.12,VALID,0,VALID,96.9394,VALID,0,VALID,20.0913,VALID,98,VALID,0.373047,
2011-07-18, 01:25:04,VALID,917.103,VALID,0,VALID,96.886,VALID,0,VALID,20.0538,VALID,98,VALID,0.775781,
2011-07-18, 01:26:04,VALID,917.065,VALID,0,VALID,96.886,VALID,0,VALID,19.9953,VALID,98,VALID,1.0168,
2011-07-18, 01:27:04,VALID,917.067,VALID,0,VALID,96.9927,VALID,0,VALID,19.9938,VALID,97,VALID,1.0082,
2011-07-18, 01:28:04,VALID,917.043,VALID,0,VALID,96.947,VALID,0,VALID,19.9938,VALID,98,VALID,0.536719,
2011-07-18, 01:29:04,VALID,917.056,VALID,0,VALID,96.9394,VALID,0,VALID,19.9758,VALID,98,VALID,0.224609,
2011-07-18, 01:30:04,VALID,917.009,VALID,0,VALID,96.9089,VALID,0,VALID,19.9368,VALID,98,VALID,0.488281,
2011-07-18, 01:31:04,VALID,917.013,VALID,0,VALID,96.9165,VALID,0,VALID,19.8978,VALID,98,VALID,0.614062,
2011-07-18, 01:32:04,VALID,917.023,VALID,0,VALID,97.0003,VALID,0,VALID,19.8783,VALID,97,VALID,0.749609,
2011-07-18, 01:33:04,VALID,917.007,VALID,0,VALID,97.0003,VALID,0,VALID,19.8768,VALID,98,VALID,0.491406,
2011-07-18, 01:34:04,VALID,916.993,VALID,0,VALID,96.9927,VALID,0,VALID,19.8783,VALID,97,VALID,0.396875,
2011-07-18, 01:35:04,VALID,916.986,VALID,0,VALID,97.0003,VALID,0,VALID,19.8588,VALID,98,VALID,0.327734,
2011-07-18, 01:36:04,VALID,916.972,VALID,0,VALID,96.9927,VALID,0,VALID,19.8183,VALID,98,VALID,0.451562,
2011-07-18, 01:37:04,VALID,916.983,VALID,0,VALID,97.0156,VALID,0,VALID,19.8378,VALID,97,VALID,0.621484,
2011-07-18, 01:38:04,VALID,916.984,VALID,0,VALID,97.069,VALID,0,VALID,19.8393,VALID,98,VALID,0.682031,
2011-07-18, 01:39:04,VALID,916.951,VALID,0,VALID,97.0994,VALID,0,VALID,19.8573,VALID,98,VALID,0.851563,
2011-07-18, 01:40:04,VALID,916.954,VALID,0,VALID,97.069,VALID,0,VALID,19.8768,VALID,98,VALID,0.755078,
2011-07-18, 01:41:04,VALID,916.925,VALID,0,VALID,97.0308,VALID,0,VALID,19.8588,VALID,98,VALID,0.726953,
2011-07-18, 01:42:04,VALID,916.938,VALID,0,VALID,97.0613,VALID,0,VALID,19.8588,VALID,98,VALID,0.839063,
2011-07-18, 01:43:04,VALID,916.881,VALID,0,VALID,97.0613,VALID,0,VALID,19.8588,VALID,97,VALID,1.04023,
2011-07-18, 01:44:04,VALID,916.869,VALID,0,VALID,97.0766,VALID,0,VALID,19.8573,VALID,21,VALID,1.18516,
2011-07-18, 01:45:04,VALID,916.879,VALID,0,VALID,97.1071,VALID,0,VALID,19.8573,VALID,21,VALID,0.919141,
2011-07-18, 01:46:04,VALID,916.868,VALID,0,VALID,97.1071,VALID,0.107441,VALID,19.8963,VALID,21,VALID,0.689062,
2011-07-18, 01:47:04,VALID,916.837,VALID,0,VALID,97.1147,VALID,0.107441,VALID,19.8963,VALID,21,VALID,0.803125,
2011-07-18, 01:48:04,VALID,916.825,VALID,0,VALID,97.1223,VALID,0.107441,VALID,19.9158,VALID,21,VALID,0.875,
2011-07-18, 01:49:04,VALID,916.846,VALID,0,VALID,97.0918,VALID,0.107441,VALID,19.8753,VALID,21,VALID,0.598437,
2011-07-18, 01:50:04,VALID,916.827,VALID,0,VALID,97.0918,VALID,0.107441,VALID,19.8963,VALID,21,VALID,0.571484,
2011-07-18, 01:51:04,VALID,916.821,VALID,0,VALID,97.0766,VALID,0.107441,VALID,19.8768,VALID,21,VALID,0.362891,
2011-07-18, 01:52:04,VALID,916.784,VALID,0,VALID,97.0918,VALID,0,VALID,19.8573,VALID,21,VALID,0.574219,
2011-07-18, 01:53:04,VALID,916.788,VALID,0,VALID,97.0918,VALID,0.107441,VALID,19.7973,VALID,21,VALID,0.788281,
2011-07-18, 01:54:04,VALID,916.778,VALID,0,VALID,97.069,VALID,0,VALID,19.7793,VALID,21,VALID,0.796094,
2011-07-18, 01:55:04,VALID,916.776,VALID,0,VALID,97.0918,VALID,0.107441,VALID,19.7583,VALID,21,VALID,0.770703,
2011-07-18, 01:56:04,VALID,916.763,VALID,0,VALID,97.0537,VALID,0,VALID,19.7403,VALID,21,VALID,0.660937,
2011-07-18, 01:57:04,VALID,916.745,VALID,0,VALID,97.0461,VALID,0.107441,VALID,19.7013,VALID,21,VALID,0.675781,
2011-07-18, 01:58:04,VALID,916.791,VALID,0,VALID,97.0537,VALID,0.107441,VALID,19.6008,VALID,21,VALID,0.608984,
2011-07-18, 01:59:04,VALID,916.794,VALID,0,VALID,97.1223,VALID,0,VALID,19.6833,VALID,21,VALID,0.787109,
2011-07-18, 02:00:04,VALID,916.801,VALID,0,VALID,97.1071,VALID,0,VALID,19.6233,VALID,43,VALID,0.919922,
2011-07-18, 02:01:04,VALID,916.791,VALID,0,VALID,97.1452,VALID,0,VALID,19.5618,VALID,103,VALID,0.878906,
2011-07-18, 02:02:04,VALID,916.8,VALID,0,VALID,97.1223,VALID,0,VALID,19.5648,VALID,103,VALID,0.805078,
2011-07-18, 02:03:04,VALID,916.782,VALID,0,VALID,97.1604,VALID,0,VALID,19.5648,VALID,103,VALID,0.789063,
2011-07-18, 02:04:04,VALID,916.776,VALID,0,VALID,97.1528,VALID,0,VALID,19.5258,VALID,103,VALID,0.695313,
2011-07-18, 02:05:04,VALID,916.757,VALID,0,VALID,97.1223,VALID,0,VALID,19.5468,VALID,103,VALID,0.567187,
2011-07-18, 02:06:04,VALID,916.742,VALID,0,VALID,97.1376,VALID,0,VALID,19.5078,VALID,103,VALID,0.480078,
2011-07-18, 02:07:04,VALID,916.764,VALID,0,VALID,97.1757,VALID,0,VALID,19.4868,VALID,103,VALID,0.691406,
2011-07-18, 02:08:04,VALID,916.761,VALID,0,VALID,97.1833,VALID,0,VALID,19.5078,VALID,103,VALID,0.803906,
2011-07-18, 02:09:04,VALID,916.737,VALID,0,VALID,97.1757,VALID,0,VALID,19.4883,VALID,103,VALID,0.594141,
2011-07-18, 02:10:04,VALID,916.749,VALID,0,VALID,97.2062,VALID,0,VALID,19.5093,VALID,103,VALID,0.575781,
2011-07-18, 02:11:04,VALID,916.701,VALID,0,VALID,97.1986,VALID,0,VALID,19.4883,VALID,103,VALID,0.675781,
2011-07-18, 02:12:04,VALID,916.704,VALID,0,VALID,97.2214,VALID,0,VALID,19.5078,VALID,103,VALID,0.531641,
2011-07-18, 02:13:04,VALID,916.703,VALID,0,VALID,97.1986,VALID,0,VALID,19.4883,VALID,103,VALID,0.557422,
2011-07-18, 02:14:04,VALID,916.713,VALID,0,VALID,97.2214,VALID,0,VALID,19.4478,VALID,103,VALID,0.766797,
2011-07-18, 02:15:04,VALID,916.72,VALID,0,VALID,97.229,VALID,0,VALID,19.4283,VALID,103,VALID,0.846875,
2011-07-18, 02:16:04,VALID,916.703,VALID,0,VALID,97.2214,VALID,0,VALID,19.4688,VALID,103,VALID,0.726563,
2011-07-18, 02:17:04,VALID,916.691,VALID,0,VALID,97.1909,VALID,0,VALID,19.4493,VALID,158,VALID,0.841797,
2011-07-18, 02:18:04,VALID,916.685,VALID,0,VALID,97.2062,VALID,0,VALID,19.4088,VALID,158,VALID,0.633203,
2011-07-18, 02:19:04,VALID,916.685,VALID,0,VALID,97.2214,VALID,0,VALID,19.4118,VALID,158,VALID,0.811328,
2011-07-18, 02:20:04,VALID,916.671,VALID,0,VALID,97.2519,VALID,0,VALID,19.4103,VALID,158,VALID,0.697266,
2011-07-18, 02:21:04,VALID,916.65,VALID,0,VALID,97.229,VALID,0,VALID,19.3908,VALID,149,VALID,0.502344,
2011-07-18, 02:22:04,VALID,916.663,VALID,0,VALID,97.2595,VALID,0,VALID,19.4103,VALID,108,VALID,0.529297,
2011-07-18, 02:23:04,VALID,916.661,VALID,0,VALID,97.2977,VALID,0,VALID,19.4298,VALID,108,VALID,0.705078,
2011-07-18, 02:24:04,VALID,916.646,VALID,0,VALID,97.3053,VALID,0,VALID,19.4493,VALID,142,VALID,1.02188,
2011-07-18, 02:25:04,VALID,916.665,VALID,0,VALID,97.2977,VALID,0,VALID,19.4688,VALID,144,VALID,0.399609,
2011-07-18, 02:26:04,VALID,916.648,VALID,0,VALID,97.3205,VALID,0,VALID,19.5078,VALID,163,VALID,1.0082,
2011-07-18, 02:27:04,VALID,916.633,VALID,0,VALID,97.3358,VALID,0,VALID,19.5273,VALID,163,VALID,0.544531,
2011-07-18, 02:28:04,VALID,916.661,VALID,0,VALID,97.3281,VALID,0,VALID,19.5273,VALID,139,VALID,0.517969,
2011-07-18, 02:29:04,VALID,916.611,VALID,0,VALID,97.3053,VALID,0,VALID,19.5273,VALID,139,VALID,0.8375,
2011-07-18, 02:30:04,VALID,916.66,VALID,0,VALID,97.2977,VALID,0,VALID,19.5258,VALID,133,VALID,0.616016,
2011-07-18, 02:31:04,VALID,916.623,VALID,0,VALID,97.3129,VALID,0,VALID,19.5663,VALID,127,VALID,0.623438,
2011-07-18, 02:32:04,VALID,916.612,VALID,0,VALID,97.2977,VALID,0,VALID,19.5663,VALID,127,VALID,0.663281,
2011-07-18, 02:33:04,VALID,916.621,VALID,0,VALID,97.2977,VALID,0,VALID,19.5663,VALID,127,VALID,0.714453,
2011-07-18, 02:34:04,VALID,916.62,VALID,0,VALID,97.3129,VALID,0,VALID,19.5858,VALID,127,VALID,1.30586,
2011-07-18, 02:35:04,VALID,916.613,VALID,0,VALID,97.2824,VALID,0,VALID,19.5483,VALID,127,VALID,0.90625,
2011-07-18, 02:36:04,VALID,916.635,VALID,0,VALID,97.3281,VALID,0,VALID,19.5663,VALID,128,VALID,0.935938,
2011-07-18, 02:37:04,VALID,916.607,VALID,0,VALID,97.3205,VALID,0,VALID,19.5468,VALID,130,VALID,1.01406,
2011-07-18, 02:38:04,VALID,916.617,VALID,0,VALID,97.3281,VALID,0,VALID,19.5273,VALID,130,VALID,0.882813,
2011-07-18, 02:39:04,VALID,916.608,VALID,0,VALID,97.3434,VALID,0,VALID,19.5468,VALID,131,VALID,0.0925781,
2011-07-18, 02:40:04,VALID,916.597,VALID,0,VALID,97.3205,VALID,0,VALID,19.5483,VALID,131,VALID,0.741016,
2011-07-18, 02:41:04,VALID,916.589,VALID,0,VALID,97.3205,VALID,0,VALID,19.5663,VALID,131,VALID,1.10352,
2011-07-18, 02:42:04,VALID,916.599,VALID,0,VALID,97.3586,VALID,0,VALID,19.5678,VALID,131,VALID,0.283594,
2011-07-18, 02:43:04,VALID,916.566,VALID,0,VALID,97.3281,VALID,0,VALID,19.5288,VALID,131,VALID,0.307031,
2011-07-18, 02:44:04,VALID,916.561,VALID,0,VALID,97.3358,VALID,0,VALID,19.5468,VALID,131,VALID,0.64375,
2011-07-18, 02:45:04,VALID,916.566,VALID,0,VALID,97.3129,VALID,0,VALID,19.4868,VALID,131,VALID,1.01563,
2011-07-18, 02:46:04,VALID,916.58,VALID,0,VALID,97.3129,VALID,0,VALID,19.5063,VALID,149,VALID,0.63125,
2011-07-18, 02:47:04,VALID,916.54,VALID,0,VALID,97.2595,VALID,0.107441,VALID,19.4283,VALID,130,VALID,1.10586,
2011-07-18, 02:48:04,VALID,916.561,VALID,0,VALID,97.2977,VALID,0,VALID,19.3698,VALID,133,VALID,0.448047,
2011-07-18, 02:49:04,VALID,916.585,VALID,0,VALID,97.3053,VALID,0,VALID,19.4088,VALID,177,VALID,0.579687,
2011-07-18, 02:50:04,VALID,916.547,VALID,0,VALID,97.3358,VALID,0.107441,VALID,19.3698,VALID,178,VALID,0.123438,
2011-07-18, 02:51:04,VALID,916.527,VALID,0,VALID,97.3358,VALID,0,VALID,19.3503,VALID,138,VALID,0.683203,
2011-07-18, 02:52:04,VALID,916.536,VALID,0,VALID,97.3281,VALID,0.107441,VALID,19.3308,VALID,114,VALID,1.05,
2011-07-18, 02:53:04,VALID,916.517,VALID,0,VALID,97.3281,VALID,0,VALID,19.2723,VALID,114,VALID,0.867578,
2011-07-18, 02:54:04,VALID,916.49,VALID,0,VALID,97.3434,VALID,0,VALID,19.3113,VALID,124,VALID,1.1875,
2011-07-18, 02:55:04,VALID,916.477,VALID,0,VALID,97.3281,VALID,0,VALID,19.2528,VALID,125,VALID,1.05508,
2011-07-18, 02:56:04,VALID,916.469,VALID,0,VALID,97.3434,VALID,0,VALID,19.2334,VALID,112,VALID,1.09102,
2011-07-18, 02:57:04,VALID,916.459,VALID,0,VALID,97.351,VALID,0.107441,VALID,19.2139,VALID,127,VALID,0.849219,
2011-07-18, 02:58:04,VALID,916.455,VALID,0,VALID,97.3663,VALID,0,VALID,19.2139,VALID,130,VALID,1.01602,
2011-07-18, 02:59:04,VALID,916.47,VALID,0,VALID,97.3586,VALID,0,VALID,19.1568,VALID,129,VALID,0.830469,
2011-07-18, 03:00:04,VALID,916.444,VALID,0,VALID,97.3968,VALID,0,VALID,19.1763,VALID,130,VALID,0.321484,
2011-07-18, 03:01:04,VALID,916.462,VALID,0,VALID,97.3586,VALID,0,VALID,19.1568,VALID,130,VALID,1.01523,
2011-07-18, 03:02:04,VALID,916.487,VALID,0,VALID,97.3663,VALID,0,VALID,19.1373,VALID,129,VALID,0.9875,
2011-07-18, 03:03:04,VALID,916.474,VALID,0,VALID,97.4044,VALID,0,VALID,19.1568,VALID,129,VALID,1.02813,
2011-07-18, 03:04:04,VALID,916.466,VALID,0,VALID,97.3968,VALID,0,VALID,19.1164,VALID,129,VALID,0.717578,
2011-07-18, 03:05:04,VALID,916.493,VALID,0,VALID,97.4044,VALID,0,VALID,19.1373,VALID,119,VALID,0.940625,
2011-07-18, 03:06:04,VALID,916.447,VALID,0,VALID,97.412,VALID,0,VALID,19.1373,VALID,119,VALID,0.896094,
2011-07-18, 03:07:04,VALID,916.451,VALID,0,VALID,97.412,VALID,0,VALID,19.1373,VALID,97,VALID,1.03437,
2011-07-18, 03:08:04,VALID,916.447,VALID,0,VALID,97.4196,VALID,0,VALID,19.0983,VALID,115,VALID,1.32813,
2011-07-18, 03:09:04,VALID,916.43,VALID,0,VALID,97.4425,VALID,0,VALID,19.1178,VALID,131,VALID,0.998047,
2011-07-18, 03:10:04,VALID,916.448,VALID,0,VALID,97.412,VALID,0,VALID,19.0788,VALID,123,VALID,0.457812,
2011-07-18, 03:11:04,VALID,916.48,VALID,0,VALID,97.4349,VALID,0,VALID,19.0593,VALID,168,VALID,0.395703,
2011-07-18, 03:12:04,VALID,916.466,VALID,0,VALID,97.4196,VALID,0,VALID,19.0608,VALID,151,VALID,0.979297,
2011-07-18, 03:13:04,VALID,916.467,VALID,0,VALID,97.4577,VALID,0,VALID,19.0593,VALID,180,VALID,0.690234,
2011-07-18, 03:14:04,VALID,916.487,VALID,0,VALID,97.4654,VALID,0,VALID,19.0593,VALID,159,VALID,0.617578,
2011-07-18, 03:15:04,VALID,916.461,VALID,0,VALID,97.4501,VALID,0,VALID,19.0788,VALID,165,VALID,0.990234,
2011-07-18, 03:16:04,VALID,916.477,VALID,0,VALID,97.473,VALID,0,VALID,19.0788,VALID,144,VALID,0.611719,
2011-07-18, 03:17:04,VALID,916.493,VALID,0,VALID,97.4577,VALID,0,VALID,19.0593,VALID,144,VALID,0.0570313,
2011-07-18, 03:18:04,VALID,916.512,VALID,0,VALID,97.4654,VALID,0,VALID,19.0788,VALID,161,VALID,1.6375,
2011-07-18, 03:19:04,VALID,916.514,VALID,0,VALID,97.4577,VALID,0,VALID,19.0593,VALID,179,VALID,0.809375,
2011-07-18, 03:20:04,VALID,916.524,VALID,0,VALID,97.4577,VALID,0,VALID,19.0788,VALID,152,VALID,1.55039,
2011-07-18, 03:21:04,VALID,916.556,VALID,0,VALID,97.473,VALID,0,VALID,19.0593,VALID,149,VALID,0.689844,
2011-07-18, 03:22:04,VALID,916.528,VALID,0,VALID,97.4882,VALID,0,VALID,19.0998,VALID,145,VALID,1.28867,
2011-07-18, 03:23:04,VALID,916.531,VALID,0,VALID,97.4501,VALID,0,VALID,19.0788,VALID,145,VALID,0.898438,
2011-07-18, 03:24:04,VALID,916.503,VALID,0,VALID,97.473,VALID,0,VALID,19.0593,VALID,135,VALID,1.16484,
2011-07-18, 03:25:04,VALID,916.465,VALID,0,VALID,97.4654,VALID,0,VALID,19.0398,VALID,141,VALID,0.644531,
2011-07-18, 03:26:04,VALID,916.489,VALID,0,VALID,97.4501,VALID,0,VALID,19.0593,VALID,124,VALID,1.05273,
2011-07-18, 03:27:04,VALID,916.481,VALID,0,VALID,97.473,VALID,0,VALID,18.9814,VALID,119,VALID,0.839453,
2011-07-18, 03:28:04,VALID,916.489,VALID,0,VALID,97.4501,VALID,0,VALID,18.9814,VALID,119,VALID,0.800391,
2011-07-18, 03:29:04,VALID,916.496,VALID,0,VALID,97.4654,VALID,0,VALID,18.9828,VALID,144,VALID,1.04609,
2011-07-18, 03:30:04,VALID,916.493,VALID,0,VALID,97.4577,VALID,0,VALID,18.9633,VALID,164,VALID,1.02422,
2011-07-18, 03:31:04,VALID,916.484,VALID,0,VALID,97.4882,VALID,0,VALID,18.9424,VALID,162,VALID,1.44844,
2011-07-18, 03:32:04,VALID,916.472,VALID,0,VALID,97.4882,VALID,0,VALID,18.9619,VALID,166,VALID,0.834766,
2011-07-18, 03:33:04,VALID,916.445,VALID,0,VALID,97.4959,VALID,0,VALID,18.9619,VALID,154,VALID,1.03828,
2011-07-18, 03:34:04,VALID,916.438,VALID,0,VALID,97.473,VALID,0,VALID,18.9424,VALID,156,VALID,1.28867,
2011-07-18, 03:35:04,VALID,916.412,VALID,0,VALID,97.5111,VALID,0,VALID,18.9619,VALID,155,VALID,0.445313,
2011-07-18, 03:36:04,VALID,916.433,VALID,0,VALID,97.4959,VALID,0,VALID,18.9424,VALID,178,VALID,0.603906,
2011-07-18, 03:37:04,VALID,916.414,VALID,0,VALID,97.5035,VALID,0,VALID,18.9229,VALID,171,VALID,0.526953,
2011-07-18, 03:38:04,VALID,916.42,VALID,0,VALID,97.4882,VALID,0,VALID,18.9438,VALID,165,VALID,0.900781,
2011-07-18, 03:39:04,VALID,916.406,VALID,0,VALID,97.5035,VALID,0,VALID,18.9243,VALID,165,VALID,0.803516,
2011-07-18, 03:40:04,VALID,916.383,VALID,0,VALID,97.5035,VALID,0,VALID,18.9034,VALID,165,VALID,1.09922,
2011-07-18, 03:41:04,VALID,916.429,VALID,0,VALID,97.5035,VALID,0,VALID,18.9034,VALID,164,VALID,1.08672,
2011-07-18, 03:42:04,VALID,916.377,VALID,0,VALID,97.5111,VALID,0,VALID,18.9243,VALID,166,VALID,0.780078,
2011-07-18, 03:43:04,VALID,916.398,VALID,0,VALID,97.5035,VALID,0,VALID,18.8853,VALID,166,VALID,0.258203,
2011-07-18, 03:44:04,VALID,916.396,VALID,0,VALID,97.5111,VALID,0,VALID,18.8853,VALID,166,VALID,0.646094,